Overview Statistics Trail Chart Weather Telemetry Raw packets
 

This is the latest recevied weather packets stored in our database for station/object KB4MLW-13. If no packets are shown the sender has not sent any weather packets the latest 10 day(s).

<< 110 111 112 113 114 115 116 >>
Time Temp. Humidity Pressure Rain* Wind** Luminosity Snow
1788190408 31.11° C 70% 1003.8 hPa 0 mm - - -
1788190348 31.11° C 71% 1003.8 hPa 0 mm - - -
1788190299 31.11° C 71% 1003.7 hPa 0 mm - - -
1788190199 31.11° C 72% 1003.7 hPa 0 mm - - -
1788190138 31.11° C 71% 1003.7 hPa 0 mm - - -
1788190078 31.11° C 71% 1003.6 hPa 0 mm - - -
1788190018 31.11° C 69% 1003.6 hPa 0 mm - - -
1788189929 31.67° C 70% 1003.6 hPa 0 mm - - -
1788189868 31.67° C 69% 1003.6 hPa 0 mm - - -
1788189808 31.67° C 70% 1003.6 hPa 0 mm - - -
1788189719 31.11° C 70% 1003.6 hPa 0 mm - - -
1788189629 31.67° C 69% 1003.7 hPa 0 mm - - -
1788189568 31.67° C 71% 1003.6 hPa 0 mm - - -
1788189511 31.67° C 71% 1003.8 hPa 0 mm - - -
1788189448 31.67° C 72% 1003.6 hPa 0 mm - - -
1788189388 31.11° C 70% 1003.7 hPa 0 mm - - -
1788189328 31.11° C 72% 1003.7 hPa 0 mm - - -
1788189268 31.11° C 71% 1003.8 hPa 0 mm - - -
1788189179 31.11° C 71% 1003.8 hPa 0 mm - - -
1788189118 31.11° C 74% 1003.7 hPa 0 mm - - -
1788189058 30.56° C 72% 1003.6 hPa 0 mm - - -
1788188968 30.56° C 73% 1003.8 hPa 0 mm - - -
1788188908 30° C 72% 1003.6 hPa 0 mm - - -
1788188848 30° C 73% 1003.7 hPa 0 mm - - -
1788188759 30° C 76% 1003.6 hPa 0 mm - - -

* Rain latest hour (hover to see other rain measurements)
** Current wind speed in m/s (hover to see current wind gust speed)